SL-16 DEB, 22618

Orbit data source: Space-Track

SL-16 DEB, 22618 is space debris in LEO originally from a launch on Fri, 26 Mar 1993 UTC launched from the Tyuratam Missile And Space Complex (TTMTR). Debris objects in space refer to the collection of defunct objects orbiting the Earth. Examples of debris include non-operational satellites, rocket bodies, and fragments generated from explosions, collisions, or faulty payload assembly.

Loading next visibility...
Identifier
22618, 1993-016AC
Orbit
LEO
Country
Flag of CISCIS
Related business
Manufacturer
Unknown
Mission
Spacecraft
Bus & Motor
Unknown
Mass
Unknown
Launch date (UTC)
1993-03-26 (32 years ago)
Launch vehicle
Unknown
Launch site
Tyuratam Missile And Space Complex (TTMTR)
Object type
Payload
Rocket body
Debris
Shape & HBR
Unknown
Radar Cross Section
Small (<0.1 m²)

Expand to show TLE details & history
Last TLE update: 20 hours ago

TLE from 20 hours ago
0 SL-16 DEB
1 22618U 93016AC  25261.03357771  .00000206  00000-0  20730-3 0  9990
2 22618  70.9913 123.6877 0157382 332.6517  26.6365 13.83380822636840
Epoch: 2025-09-18T00:48Z
TLE epoch observation values (Epoch: 2025-09-18T00:48:21.114Z)
Latitude
-0.00001°
Longitude
114.39874°
Altitude
851.525 km
Speed
7.479 km/s
True Right ascension
08h 14m 45s
True Declination
0° 00' 00"
Sunlit
Object was in daylight at epoch
Visualization orbit readout
Latitude
Unknown
Longitude
Unknown
Altitude
Unknown
Speed
Unknown
Apparent Right ascension
Unknown
Apparent Declination
Unknown
Sunlit
N/A
Visualization observer readout
Local Sidereal Time
13:41:21
Azimuth
Unknown
Elevation
Unknown
Doppler factor
Unknown
Orbital elements
Apogee altitude
1,065.206 km
Perigee altitude
834.546 km
Semi-major axis
7,328.013 km
Eccentricity
0.01574
Inclination
70.9913°
RAAN
123.6877°
Arg. of periapsis
332.6517°
True anomaly
27.45948°
Mean anomaly
26.6365°
Eccentric anomaly
27.04653°
Mean motion
3.4599 °/min
Orbital period
104.05 mins
BSTAR
0.0002073
Loading maneuver chart data...
Computing Atmospheric mass density...
Loading historical data...
Loading historical data...
Loading historical data...
Loading historical data...
Loading historical data...
Loading historical data...
Loading historical data...

Documentation

Showing up to 5 results
|